Regional Weather Roundup
Issued by NWS

Home | Current Version | Previous Version | Text Only | Print | Product List | Glossary On
Versions: 1 2 3 4 5 6 7 8 9 10 11 12 13 14 15 16 17 18 19 20 21 22 23 24 25 26 27 28 29 30 31 32 33 34 35 36 37 38 39 40 41 42 43 44 45 46 47 48 49 50
000
ASUS45 KBOU 300407
RWRCO

WEATHER ROUNDUP FOR COLORADO
NATIONAL WEATHER SERVICE DENVER/BOULDER CO
1000 PM MDT SAT AUG 29 2015

NOTE: "FAIR" INDICATES FEW OR NO CLOUDS BELOW 12000 FEET WITH NO
SIGNIFICANT WEATHER AND/OR OBSTRUCTIONS TO VISIBILITY.

COZ001>005-013-030-031-300500-
...NORTHWEST COLORADO...

CITY           SKY/WX    TMP DP  RH WIND       PRES   REMARKS
CRAIG          MOCLDY    63  42  46 VRB3      30.17S
HAYDEN         NOT AVBL
MEEKER         MOCLDY    62  41  46 VRB3      30.20R
MOUNT WERNER   NOT AVBL
STEAMBOAT SPGS MOCLDY    63  39  42 CALM      30.24S
WALDEN         PTCLDY    50  37  62 SE10      30.34S
$$

COZ006>008-011-300500-
...WEST CENTRAL VALLEYS...

CITY           SKY/WX    TMP DP  RH WIND       PRES   REMARKS
GRAND JUNCTION MOCLDY    73  37  27 E3        30.07R
MONTROSE       PTCLDY    70  43  37 SE12      30.19R
EAGLE          PTCLDY    66  43  42 E8        30.26R
RIFLE          PTCLDY    68  45  43 E6        30.13R
DELTA          PTCLDY    73  46  37 NE6       30.13R
NUCLA          PTCLDY    70  34  26 E10       30.22R
$$

COZ017>023-064>068-300500-
...SOUTHWEST COLORADO...

CITY           SKY/WX    TMP DP  RH WIND       PRES   REMARKS
DURANGO        CLEAR     64  46  52 NE7       30.28R
CORTEZ         CLEAR     61  42  49 NE9       30.20R
PAGOSA SPRINGS CLEAR     62  42  47 N3        30.38S
TELLURIDE      CLEAR     59  43  55 SE7       30.49S
WOLF CREEK PAS PTCLDY    48  36  61 SW15      30.72R
$$

COZ009-010-012-014-032>034-037-058>063-300500-
...CENTRAL COLORADO...

CITY           SKY/WX    TMP DP  RH WIND       PRES   REMARKS
ASPEN          PTCLDY    60  41  49 S9        30.35R
BUENA VISTA    PTCLDY    64  40  40 E3        30.37R
COPPER MTN     PTCLDY    55  34  44 W15G22    30.69S
BERTHOUD PASS  FAIR      46  34  61 W13       30.73S
COTTONWOOD PAS PTCLDY    64  36  34 SE6       30.51S
GUNNISON       PTCLDY    61  37  41 N5        30.38R
KREMMLING      CLEAR     59  37  44 CALM      30.31R
LEADVILLE      PTCLDY    54  35  48 E5        30.50S
MONARCH PASS   PTCLDY    52  36  54 SW10      30.79S
SALIDA         PTCLDY    65  42  43 SW6       30.40S
SUNLIGHT       PTCLDY    55  36  47 CALM      30.60S
WILKERSON PASS PTCLDY    52  32  46 S14G21    30.65S
$$

COZ069>075-300500-
...SAN LUIS VALLEY/SANGRE DE CRISTO MOUNTAINS...

CITY           SKY/WX    TMP DP  RH WIND       PRES   REMARKS
ALAMOSA        PTCLDY    62  42  47 S9        30.35R
LA VETA PASS   CLEAR     54  41  62 MISG      30.56R
SAGUACHE       NOT AVBL
$$

COZ035-036-038>040-300500-
...NORTHERN COLORADO FRONT RANGE...

CITY           SKY/WX    TMP DP  RH WIND       PRES   REMARKS
DENVER INTL AP MOCLDY    76  38  25 S23       30.15R
DMNS CITY PARK   N/A     76  39  26 SE10G20   30.14S
AURORA         MOCLDY    74  40  29 S18G28    30.18R
FRONT RANGE AP NOT AVBL
ERIE MUNI ARPT PTCLDY    78  39  25 S9        30.12S
BOULDER MUN AP PTCLDY    73  45  35 S5        30.13R
CENTENNIAL     PTCLDY    72  41  32 S16       30.19S
BROOMFIELD     NOT AVBL
FORT COLLINS   CLEAR     72  46  40 SE8       30.12R
LONGMONT       CLEAR     67  49  51 W5        30.13S
$$

COZ041-046-047-076>085-087-088-300500-
...PIKES PEAK/PALMER DIVIDE AND SOUTHERN FOOTHILLS...

CITY           SKY/WX    TMP DP  RH WIND       PRES   REMARKS
COLO. SPRINGS  PTCLDY    69  36  29 CALM      30.28R
A. F. ACADEMY  CLEAR     67  37  33 S9        30.30R
ELLICOTT       PTCLDY     1  32 100 SE13      30.26S WCI -17
FALCON         PTCLDY    62  37  40 MISG      30.33S
FORT CARSON    PTCLDY    70  39  32 E2        30.24S
LIMON          PTCLDY    59  42  53 SE7       30.22S
MONUMENT HILL  PTCLDY    64  34  32 S21G26    30.31S
TRINIDAD       CLEAR     70  44  39 S12       30.25R
$$

COZ042>045-048>051-090-091-300500-
...NORTHEAST COLORADO...

CITY           SKY/WX    TMP DP  RH WIND       PRES   REMARKS
GREELEY ARPT   CLEAR     68  46  45 SE6       30.11R
AKRON          CLEAR     70  38  31 S13       30.14S
BURLINGTON     CLEAR     63  45  51 S10       30.16S
WRAY           CLEAR     75  39  27 S13G18    30.10S
STERLING       CLEAR     72  43  35 S8        30.08R
HOLYOKE        CLEAR     70  45  40 S9        30.10S
FORT MORGAN    CLEAR     67  43  42 SE6       30.13R
$$

COZ086-089-092>099-300500-
...SOUTHEAST COLORADO...

CITY           SKY/WX    TMP DP  RH WIND       PRES   REMARKS
PUEBLO         CLEAR     73  42  32 E8        30.13S
LA JUNTA       CLEAR     69  40  34 SE8       30.15R
LAMAR          CLEAR     70  47  43 S12       30.11S
SPRINGFIELD    NOT AVBL
$$




USA.gov is the U.S. government's official web portal to all federal, state and local government web resources and services.